Regional Weather Roundup
Issued by NWS

Home | Current Version | Previous Version | Graphics & Text | Print | Product List | Glossary On
Versions: 1 2 3 4 5 6 7 8 9 10 11 12 13 14 15 16 17 18 19 20 21 22 23 24 25 26 27 28 29 30 31 32 33 34 35 36 37 38 39 40 41 42 43 44 45 46 47 48 49 50
000
ASUS43 KMPX 011910
RWRMN
WEATHER ROUNDUP FOR MINNESOTA
NATIONAL WEATHER SERVICE TWIN CITIES/CHANHASSEN MN
200 PM CDT WED OCT 01 2014


NOTE: "FAIR" INDICATES FEW OR NO CLOUDS BELOW 12,000 FEET WITH NO
SIGNIFICANT WEATHER AND/OR OBSTRUCTIONS TO VISIBILITY. N/A MEANS
CURRENT SKY AND/OR WEATHER CONDITIONS ARE NOT AVAILABLE.

MNZ060>063-068>070-012000-
   Twin Cities Metro

CITY           SKY/WX    TMP DP  RH WIND       PRES   REMARKS
TWIN CITIES    LGT RAIN  52  51  97 SE7       29.80F
ST PAUL        LGT RAIN  52  51  97 SE9       29.81F
CRYSTAL        LGT RAIN  54  50  86 SE10      29.78F
LAKEVILLE      RAIN      52  52 100 SE3       29.79F
EDEN PRAIRIE   CLOUDY    53  52  96 SE9       29.77F
SOUTH ST PAUL  CLOUDY    52  51  95 SE3       29.80F
LAKE ELMO      RAIN      52  50  93 SE3       29.82F
$$
MNZ001>005-007-008-013>017-022>024-027-028-012000-
   Northwest Minnesota

CITY           SKY/WX    TMP DP  RH WIND       PRES   REMARKS
BEMIDJI        CLOUDY    56  52  85 S14G22    29.67F
HALLOCK        MOSUNNY   66  55  68 SW21      29.53S
ROSEAU         PTSUNNY   66  55  68 S18G24    29.56F
WARROAD        CLOUDY    64  55  72 S14G22    29.57F
THIEF RVR FALL CLOUDY    64  52  63 SW14G22   29.59F
CROOKSTON      CLOUDY    66  54  63 SW15      29.61S
FOSSTON        CLOUDY    63  54  72 S20       29.63S
DETROIT LAKES  PTSUNNY   63  55  77 S14       29.67F
PARK RAPIDS    CLOUDY    54  52  93 S15       29.70F
MAHNOMEN       CLOUDY    63  56  77 S13       29.63F
$$
MNZ006-009>011-018-025>026-012000-
   North Central Minnesota

CITY           SKY/WX    TMP DP  RH WIND       PRES   REMARKS
BAUDETTE       CLOUDY    59  53  80 S12G22    29.62F
FLAG ISLAND    CLOUDY    61  55  82 S22       29.55F
INTL FALLS     CLOUDY    52  48  86 S9        29.70F
WASKISH        CLOUDY    57  52  82 SE9G20    29.65F
BIG FORK       CLOUDY    54  48  82 S7        29.72F
LONGVILLE      CLOUDY    54  50  87 SE13      29.73F
GRAND RAPIDS   CLOUDY    50  46  87 SE7       29.75F
CRANE LAKE     LGT RAIN  48  48 100 S5        29.77S
ORR            DRIZZLE   52  46  82 S9        29.72F
COOK           DRIZZLE   50  48  93 SE6       29.76F
WALKER         CLOUDY    54  50  87 S9G17     29.70F
$$
MNZ012-019>021-037-012000-
   Northeast Minnesota

CITY           SKY/WX    TMP DP  RH WIND       PRES   REMARKS
DULUTH         LGT RAIN  49  47  93 SE9       29.80F FOG
ELY            RAIN      48  46  93 S10       29.79F
HIBBING        CLOUDY    50  47  89 SE9       29.77F
EVELETH        LGT RAIN  50  48  93 S3        29.78F
DULUTH HARBOR  DRIZZLE   50  48  93 CALM      29.82F
TWO HARBORS    LGT RAIN  46  43  87 E6        29.80F
SILVER BAY     RAIN      45  45 100 E6        29.81F
GRAND MARAIS     N/A     49  47  93 CALM      29.87F
G MARAIS ARPRT LGT RAIN  45  41  87 SE7       29.85F
$$
MNZ029>031-032-039>041-046>048-054>057-064-012000-
   West Central Minnesota

CITY           SKY/WX    TMP DP  RH WIND       PRES   REMARKS
FERGUS FALLS   PTSUNNY   72  54  53 SW12G26   29.66F
WHEATON        MOSUNNY   70  54  56 SW10      29.69F
MORRIS         MOSUNNY   70  61  73 S9        29.68S
ALEXANDRIA     CLOUDY    59  56  89 SE13      29.72F
ELBOW LAKE     PTSUNNY   67  60  78 S14       29.68F
WADENA         CLOUDY    55  54  94 S12       29.71S FOG
GLENWOOD       PTSUNNY   61  57  88 SE9       29.73F
APPLETON       MOSUNNY   72  59  64 S3        29.68F
BENSON         PTSUNNY   70  61  73 S10       29.70F
ORTONVILLE     MOSUNNY   72  54  53 W6        29.69S
MADISON        MOSUNNY   73  59  60 W5        29.68F
WILLMAR        PTSUNNY   64  54  68 SE10      29.74S
$$
MNZ033>034-036-042>043-049>051-058-059-012000-
   Central Minnesota

CITY           SKY/WX    TMP DP  RH WIND       PRES   REMARKS
ST CLOUD       CLOUDY    56  51  84 SE10      29.76F
SAUK CENTRE    CLOUDY    55  54  95 SE8       29.74F FOG
PAYNESVILLE    CLOUDY    55  52  90 E8        29.75S
AITKIN         CLOUDY    54  48  82 SE9       29.74F
PINE RIVER     CLOUDY    54  50  87 S12       29.77F
BRAINERD       CLOUDY    52  50  93 S8        29.75F
STAPLES        CLOUDY    54  52  94 S8        29.73F FOG
LONG PRAIRIE   CLOUDY    54  52  94 SE12      29.74F FOG
LITTLE FALLS   CLOUDY    54  50  87 SE8       29.75F
LITCHFIELD     CLOUDY    61  55  82 S7        29.75F
BUFFALO        CLOUDY    54  50  87 SE9       29.77F
MAPLE LAKE     DRIZZLE   55  53  95 SE7       29.77F
$$
MNZ037-044-045-052-053-012000-
   East Central Minnesota

CITY           SKY/WX    TMP DP  RH WIND       PRES   REMARKS
PRINCETON      CLOUDY    54  52  94 SE10      29.77F
MORA           LGT RAIN  50  48  93 S7        29.81F
CAMBRIDGE      DRIZZLE   54  46  76 SE6       29.78F
RUSH CITY      LGT RAIN  50  48  95 SE5       29.81F
MOOSE LAKE     LGT RAIN  50  48  93 S5        29.78F
HINCKLEY       DRIZZLE   50  50 100 SE7       29.80F
CLOQUET        LGT RAIN  48  46  93 SE6       29.80S
MCGREGOR       CLOUDY    50  48  93 SE10      29.78S
$$
MNZ071>073-080-081-089-090-097-098-012000-
   Southwest Minnesota

CITY           SKY/WX    TMP DP  RH WIND       PRES   REMARKS
MONTEVIDEO     CLOUDY    70  61  73 S8        29.71S
GRANITE FALLS  MOSUNNY   66  57  72 SE10      29.72F
CANBY          PTSUNNY   72  59  64 E3        29.70F
MARSHALL       CLOUDY    72  57  60 E3        29.70S
REDWOOD FALLS  SUNNY     67  56  67 SE13      29.72F
OLIVIA         MOSUNNY   64  55  72 S8        29.72F
PIPESTONE      MOSUNNY   72  57  60 SW8       29.73S
WINDOM         MOSUNNY   66  57  72 S6        29.75R
WORTHINGTON    PTSUNNY   64  57  77 S10       29.76F
JACKSON        CLOUDY    64  55  72 S8        29.76S
TRACY          MOSUNNY   70  60  70 S10       29.72F
SLAYTON        PTSUNNY   70  59  68 E12       29.73F
$$
MNZ065>067-074>077-082>085-091>093-012000-
   South Central Minnesota

CITY           SKY/WX    TMP DP  RH WIND       PRES   REMARKS
MANKATO        CLOUDY    55  50  82 S12       29.77F
NEW ULM        MOSUNNY   59  55  88 SE9       29.75F
ST JAMES       CLOUDY    61  55  82 SE10      29.77F
FAIRMONT       CLOUDY    57  54  88 SE8       29.76F
GLENCOE        CLOUDY    58  54  86 SE7       29.76S
FARIBAULT      CLOUDY    54  54 100 S8        29.80S
OWATONNA       CLOUDY    55  54  94 S5        29.80S FOG
WASECA         CLOUDY    54  50  87 SE6       29.80F FOG
ALBERT LEA     CLOUDY    55  55 100 S12       29.79S FOG
$$
MNZ078>079-086>088-094>096-012000-
   Southeast Minnesota

CITY           SKY/WX    TMP DP  RH WIND       PRES   REMARKS
ROCHESTER      CLOUDY    55  52  89 S10       29.81F FOG
RED WING       RAIN      54  52  94 SE5       29.81F
STANTON        CLOUDY    55  52  90 S5        29.79F
DODGE CENTER   CLOUDY    55  54  94 S9        29.80F FOG
WINONA         CLOUDY    55  54  94 SE5       29.84F
AUSTIN         RAIN      55  54  94 S5        29.80F
PRESTON        LGT RAIN  55  52  90 SE6       29.83F
$$
ABBREVIATIONS USED IN REMARKS
   TC - TEMPERATURES IN CELSIUS
  WCI - WIND CHILL INDEX
   HX - HEAT INDEX
  VSB - VISIBILITY
$$


USA.gov is the U.S. government's official web portal to all federal, state and local government web resources and services.